[[{"header":{"parameterUnit":"m.s-1","parameterCategory":1,"la1":30.2991,"la2":30.254,"lo1":-89.0895,"lo2":-89.0444,"dy":0.0017,"dx":0.0017,"nx":28,"ny":28,"refTime":"2024-07-22T09:00:00:Z","depth":0,"parameterNumber":2,"parameterNumberName":"U-component_of_WINDS"},"data":[0,0,0,0,0,0,0,0,0,0,0,0,0,0,0,0,0,0,0,0,0,0,0,0,0,0,0,0,0,0,0,0,0,0,0,0,0,0,0,0,0,0,0,0,0,0,0,0,0,0,0,0,0,0,0,0,0,0,-1.2087,-1.2086,0,-1.2061,-1.206,-1.206,-1.199,-1.1989,-1.1987,-1.1986,-1.1959,-1.196,-1.1961,0,0,0,0,0,0,0,0,0,0,0,0,0,-1.2075,-1.2075,-1.2087,-1.2086,-1.2086,-1.2061,-1.206,-1.206,-1.199,-1.1989,-1.1987,-1.1985,-1.1959,-1.196,-1.1961,0,0,0,0,0,0,0,0,0,0,0,0,0,-1.2067,-1.2075,-1.2087,-1.2048,-1.2045,-1.2061,-1.206,-1.206,-1.1991,-1.1989,-1.1986,-1.1984,-1.1959,-1.196,-1.1961,-1.2012,0,0,-1.1964,-1.1964,0,0,0,0,0,0,0,0,-1.2068,-1.2068,-1.2054,-1.2051,-1.2047,-1.2026,-1.2046,-1.2044,-1.1991,-1.2011,-1.1986,-1.1983,-1.1983,-1.1982,-1.1982,-1.2011,-1.201,-1.1964,-1.1965,-1.1965,-1.1965,0,0,0,0,0,0,0,-1.2069,-1.2069,-1.2076,-1.2054,-1.205,-1.2032,-1.2028,-1.2045,-1.201,-1.2009,-1.2004,-1.2002,-1.1981,-1.1982,-1.1981,-1.2009,-1.1964,-1.1965,-1.1966,-1.1966,-1.2076,-1.2078,0,0,0,0,0,0,-1.2075,-1.207,-1.2077,-1.2076,-1.2052,-1.2034,-1.203,-1.2035,-1.201,-1.2004,-1.2004,-1.1999,-1.1981,-1.198,-1.198,-1.2037,-1.1965,-1.1966,-1.1967,-1.2074,-1.2077,-1.2079,0,0,0,0,0,0,-1.2075,-1.2076,-1.2078,-1.2071,-1.207,-1.2036,-1.2043,-1.2036,-1.2036,-1.2006,-1.1999,-1.2011,-1.1979,-1.1979,-1.2004,-1.2035,-1.1967,-1.1968,-1.2071,-1.2075,-1.2078,-1.2153,0,0,0,0,0,0,-1.2075,-1.2076,-1.2096,-1.2072,-1.2071,-1.2104,-1.2045,-1.2037,-1.2038,-1.2031,-1.2011,-1.2005,-1.1977,-1.2003,-1.2005,-1.2035,-1.1968,-1.2068,-1.2073,-1.2077,-1.2148,-1.2159,-1.2168,0,0,0,0,0,-1.2074,-1.2119,-1.2098,-1.2099,-1.2095,-1.2106,-1.2105,-1.2072,-1.2041,-1.206,-1.204,-1.2006,-1.2031,-1.2006,-1.2008,-1.2039,-1.2066,-1.2072,-1.2077,-1.2143,-1.2156,-1.2168,0,0,0,0,0,0,-1.2149,-1.2115,-1.2091,-1.2129,-1.2121,-1.2094,-1.2117,-1.2087,-1.2087,-1.2081,-1.204,-1.2035,-1.2067,-1.2055,-1.2028,-1.2086,-1.2043,-1.2049,-1.2093,-1.2105,-1.2115,-1.2118,-1.1969,0,0,0,0,0,-1.2169,-1.2181,-1.2151,-1.2188,-1.2184,-1.2152,-1.2155,-1.213,-1.212,-1.2116,-1.2098,-1.2089,-1.2094,-1.2099,-1.2103,-1.2145,-1.2139,-1.2167,-1.2177,-1.2186,-1.2192,-1.2211,-1.2223,-1.2096,-1.2096,-1.2096,0,0,-1.2212,-1.2195,-1.2206,-1.2202,-1.2192,-1.2205,-1.2149,-1.2165,-1.2174,-1.2118,-1.2141,-1.2127,-1.2114,-1.2148,-1.2162,-1.214,-1.2225,-1.2192,-1.22,-1.22,-1.2218,-1.223,-1.2241,-1.21,-1.2099,-1.2099,0,0,-1.2297,-1.2286,-1.2314,-1.2305,-1.2291,-1.2268,-1.2275,-1.2252,-1.2241,-1.2263,-1.2221,-1.223,-1.2241,-1.2233,-1.223,-1.2309,-1.2277,-1.2311,-1.2365,-1.2385,-1.2395,-1.2403,-1.243,-1.2441,-1.2317,-1.2317,-1.2317,0,-1.2353,-1.237,-1.2333,-1.2351,-1.235,-1.2299,-1.2326,-1.232,-1.2308,-1.2308,-1.2282,-1.2294,-1.2282,-1.2312,-1.2331,-1.2331,-1.2336,-1.2314,-1.2396,-1.2404,-1.2412,-1.2437,-1.2448,-1.2321,-1.2321,-1.232,-1.232,0,-1.2438,-1.2451,-1.2475,-1.2464,-1.2465,-1.2489,-1.2454,-1.246,-1.2434,-1.2414,-1.2436,-1.2419,-1.2417,-1.2422,-1.2398,-1.2449,-1.2435,-1.2404,-1.2359,-1.2429,-1.2452,-1.2462,-1.2327,-1.2326,-1.2325,-1.2324,0,0,-1.2571,-1.2537,-1.2547,-1.254,-1.2519,-1.2528,-1.2547,-1.2545,-1.2551,-1.2543,-1.2558,-1.2568,-1.2538,-1.2535,-1.2508,-1.2526,-1.2587,-1.2492,-1.2491,-1.251,-1.2641,-1.2665,-1.2677,-1.2566,-1.2567,-1.2569,-1.2642,0,-1.2651,-1.2683,-1.2648,-1.2687,-1.2698,-1.2648,-1.2665,-1.2653,-1.2635,-1.264,-1.2618,-1.2625,-1.2586,-1.2584,-1.2598,-1.2577,-1.2613,-1.2571,-1.2578,-1.2579,-1.2584,-1.2689,-1.2714,-1.2784,-1.2651,-1.2652,-1.2653,0,-1.2748,-1.2744,-1.2784,-1.2759,-1.2762,-1.2778,-1.2772,-1.2778,-1.2763,-1.2748,-1.2743,-1.2711,-1.2727,-1.2684,-1.2705,-1.2677,-1.2677,-1.2667,-1.2669,-1.2668,-1.2621,-1.2691,-1.2806,-1.2816,-1.2667,-1.2666,-1.2665,0,-1.284,-1.2845,-1.2869,-1.2864,-1.2836,-1.2848,-1.2836,-1.2819,-1.282,-1.2814,-1.2814,-1.2811,-1.2809,-1.2807,-1.2773,-1.2745,-1.2798,-1.2752,-1.2786,-1.2786,-1.28,-1.2799,-1.2916,-1.28,-1.28,-1.28,-1.28,0,-1.2933,-1.2959,-1.2909,-1.2924,-1.2951,-1.2911,-1.2939,-1.2922,-1.2907,-1.2917,-1.2873,-1.2883,-1.2839,-1.2844,-1.2818,-1.2839,-1.2839,-1.2826,-1.2819,-1.283,-1.2832,-1.283,-1.2824,-1.2803,-1.2802,-1.2802,-1.2801,0,-1.304,-1.3008,-1.3031,-1.3001,-1.2994,-1.3015,-1.2989,-1.3001,-1.2978,-1.2991,-1.2992,-1.2956,-1.296,-1.2926,-1.2924,-1.2906,-1.2938,-1.2923,-1.2944,-1.2939,-1.2973,-1.297,-1.3093,-1.3107,-1.2983,-1.2984,-1.2985,0,-1.3102,-1.312,-1.3092,-1.3095,-1.3086,-1.3092,-1.3091,-1.3051,-1.3052,-1.3036,-1.3049,-1.3049,-1.3046,-1.3054,-1.3027,-1.3024,-1.3008,-1.3051,-1.3008,-1.3017,-1.3008,-1.3007,-1.3008,-1.3061,-1.3062,-1.3064,-1.3065,0,-1.3213,-1.3196,-1.3197,-1.3192,-1.3192,-1.3186,-1.3178,-1.3183,-1.3139,-1.3142,-1.3145,-1.3143,-1.3139,-1.3139,-1.313,-1.3117,-1.3084,-1.3078,-1.3086,-1.3097,-1.3108,-1.3102,-1.2968,-1.3076,-1.3075,-1.3074,-1.3073,-1.3073,-1.3299,-1.3313,-1.3294,-1.3296,-1.3285,-1.3277,-1.3286,-1.3264,-1.3265,-1.3259,-1.3235,-1.3241,-1.3224,-1.3209,-1.3199,-1.3202,-1.3181,-1.3192,-1.3195,-1.3198,-1.3204,-1.3108,-1.3201,-1.32,-1.32,-1.32,-1.3199,0,-1.3408,-1.3393,-1.3395,-1.3383,-1.3385,-1.3352,-1.334,-1.3343,-1.3349,-1.3335,-1.3333,-1.3335,-1.3334,-1.3307,-1.3302,-1.331,-1.3294,-1.331,-1.3309,-1.3306,-1.3224,-1.3218,-1.3323,-1.3323,-1.3323,-1.3323,-1.3323,-1.3323,-1.3465,-1.3485,-1.3465,-1.3479,-1.3464,-1.347,-1.3465,-1.3457,-1.3446,-1.345,-1.3449,-1.3431,-1.3411,-1.3404,-1.3401,-1.3393,-1.3393,-1.3414,-1.3401,-1.3324,-1.3312,-1.3301,-1.3295,-1.3414,-1.3414,-1.3482,-1.3483,-1.3483]},{"header":{"parameterUnit":"m.s-1","parameterCategory":1,"la1":30.2991,"la2":30.254,"lo1":-89.0895,"lo2":-89.0444,"dy":0.0017,"dx":0.0017,"nx":28,"ny":28,"refTime":"2024-07-22T09:00:00:Z","depth":0,"parameterNumber":3,"parameterNumberName":"V-component_of_WINDS"},"data":[0,0,0,0,0,0,0,0,0,0,0,0,0,0,0,0,0,0,0,0,0,0,0,0,0,0,0,0,0,0,0,0,0,0,0,0,0,0,0,0,0,0,0,0,0,0,0,0,0,0,0,0,0,0,0,0,0,0,-2.6465,-2.6466,0,-2.6514,-2.6515,-2.6515,-2.65,-2.6499,-2.6498,-2.6497,-2.6546,-2.6548,-2.655,0,0,0,0,0,0,0,0,0,0,0,0,0,-2.6356,-2.6358,-2.6465,-2.6466,-2.6467,-2.6514,-2.6515,-2.6516,-2.65,-2.6499,-2.6498,-2.6497,-2.6545,-2.6547,-2.655,0,0,0,0,0,0,0,0,0,0,0,0,0,-2.6404,-2.6359,-2.6465,-2.6465,-2.6465,-2.6514,-2.6515,-2.6516,-2.6501,-2.6499,-2.6498,-2.6496,-2.6544,-2.6547,-2.6551,-2.6602,0,0,-2.6561,-2.6562,0,0,0,0,0,0,0,0,-2.6401,-2.6408,-2.6464,-2.6465,-2.6466,-2.65,-2.6494,-2.6545,-2.6501,-2.6487,-2.6497,-2.6495,-2.6531,-2.6536,-2.6548,-2.6604,-2.6606,-2.6561,-2.6563,-2.6565,-2.6566,0,0,0,0,0,0,0,-2.6398,-2.6406,-2.6485,-2.6465,-2.6466,-2.6461,-2.6466,-2.6503,-2.6517,-2.6488,-2.6487,-2.6493,-2.6531,-2.6545,-2.6549,-2.6607,-2.6561,-2.6564,-2.6566,-2.6567,-2.6705,-2.6707,0,0,0,0,0,0,-2.6394,-2.6403,-2.6483,-2.6486,-2.6429,-2.6464,-2.647,-2.649,-2.6517,-2.6519,-2.6495,-2.6493,-2.654,-2.6545,-2.6551,-2.6611,-2.6565,-2.6568,-2.657,-2.6704,-2.6706,-2.6708,0,0,0,0,0,0,-2.6392,-2.6402,-2.6481,-2.6444,-2.6454,-2.6468,-2.6491,-2.6492,-2.6506,-2.6522,-2.6524,-2.6506,-2.6539,-2.6546,-2.6589,-2.6613,-2.6569,-2.6572,-2.6702,-2.6704,-2.6707,-2.6734,0,0,0,0,0,0,-2.6389,-2.6401,-2.6422,-2.6445,-2.6456,-2.652,-2.6492,-2.6494,-2.6512,-2.6509,-2.6533,-2.6536,-2.6538,-2.6584,-2.6592,-2.6617,-2.6575,-2.67,-2.6703,-2.6706,-2.6731,-2.6737,-2.6742,0,0,0,0,0,-2.6385,-2.6428,-2.6423,-2.6433,-2.6482,-2.6521,-2.6527,-2.653,-2.6514,-2.6534,-2.6544,-2.6535,-2.6609,-2.6589,-2.6598,-2.6624,-2.6698,-2.6702,-2.6706,-2.6729,-2.6736,-2.6742,0,0,0,0,0,0,-2.6407,-2.6431,-2.6426,-2.6477,-2.6497,-2.6518,-2.6544,-2.6538,-2.6563,-2.656,-2.6562,-2.6567,-2.6611,-2.6622,-2.6598,-2.6674,-2.6651,-2.6657,-2.6665,-2.6673,-2.6678,-2.6674,-2.6578,0,0,0,0,0,-2.6417,-2.6448,-2.6467,-2.651,-2.652,-2.653,-2.6547,-2.6548,-2.6568,-2.6577,-2.659,-2.661,-2.6637,-2.6656,-2.6682,-2.6733,-2.6736,-2.6755,-2.676,-2.6765,-2.677,-2.6795,-2.6803,-2.672,-2.672,-2.672,0,0,-2.644,-2.6457,-2.6476,-2.6515,-2.653,-2.656,-2.6538,-2.6571,-2.6593,-2.6582,-2.6623,-2.6633,-2.6655,-2.6702,-2.6723,-2.6712,-2.6793,-2.677,-2.6773,-2.6775,-2.68,-2.6808,-2.6815,-2.6722,-2.6722,-2.6722,0,0,-2.6496,-2.6512,-2.6549,-2.6565,-2.6589,-2.6595,-2.6604,-2.6626,-2.6632,-2.6674,-2.6665,-2.6691,-2.6739,-2.6754,-2.6769,-2.6828,-2.682,-2.6837,-2.6866,-2.6891,-2.6898,-2.6903,-2.6923,-2.693,-2.6842,-2.6842,-2.6842,0,-2.6521,-2.6566,-2.6569,-2.6603,-2.6619,-2.661,-2.6647,-2.6662,-2.6693,-2.6704,-2.6691,-2.675,-2.6765,-2.6814,-2.6828,-2.684,-2.6849,-2.6834,-2.6897,-2.6902,-2.6908,-2.6927,-2.6934,-2.6843,-2.6843,-2.6843,-2.6843,0,-2.6595,-2.6626,-2.6653,-2.6683,-2.6703,-2.6738,-2.6745,-2.6764,-2.6762,-2.6769,-2.681,-2.6827,-2.6856,-2.6867,-2.6866,-2.6916,-2.6908,-2.6896,-2.6873,-2.6917,-2.6935,-2.6943,-2.6846,-2.6845,-2.6845,-2.6844,0,0,-2.6667,-2.6697,-2.6706,-2.6719,-2.6744,-2.6768,-2.6801,-2.683,-2.6845,-2.6867,-2.6894,-2.6934,-2.6923,-2.6939,-2.6939,-2.6961,-2.7005,-2.6946,-2.6946,-2.6955,-2.7058,-2.7067,-2.7075,-2.7,-2.7001,-2.7002,-2.7056,0,-2.6724,-2.6784,-2.6786,-2.684,-2.6868,-2.6859,-2.6888,-2.6906,-2.6913,-2.6937,-2.6944,-2.6972,-2.6956,-2.6965,-2.6986,-2.6995,-2.7025,-2.6991,-2.7024,-2.7025,-2.7018,-2.7085,-2.7094,-2.7144,-2.7063,-2.7064,-2.7065,0,-2.6799,-2.6822,-2.6879,-2.6898,-2.691,-2.6936,-2.6961,-2.6985,-2.7004,-2.7007,-2.7024,-2.7021,-2.7053,-2.703,-2.7074,-2.705,-2.7064,-2.707,-2.7072,-2.7074,-2.7047,-2.7088,-2.716,-2.7167,-2.7077,-2.7076,-2.7075,0,-2.6844,-2.689,-2.6929,-2.694,-2.6964,-2.6982,-2.6992,-2.701,-2.7026,-2.7048,-2.7058,-2.7083,-2.7097,-2.7115,-2.7118,-2.7101,-2.7162,-2.7139,-2.7164,-2.7164,-2.7177,-2.7176,-2.7252,-2.7187,-2.7187,-2.7187,-2.7187,0,-2.6907,-2.6942,-2.6949,-2.6974,-2.7011,-2.7013,-2.705,-2.7059,-2.7075,-2.7099,-2.7093,-2.7116,-2.7119,-2.7142,-2.7144,-2.7179,-2.7186,-2.7188,-2.7188,-2.7189,-2.7188,-2.7197,-2.7193,-2.7189,-2.7189,-2.7188,-2.7188,0,-2.6964,-2.6971,-2.7013,-2.7031,-2.7036,-2.7063,-2.7078,-2.7101,-2.7107,-2.7138,-2.7145,-2.7154,-2.7181,-2.7186,-2.7218,-2.7219,-2.726,-2.7257,-2.7254,-2.7254,-2.7278,-2.7276,-2.7361,-2.7372,-2.7302,-2.7302,-2.7303,0,-2.7004,-2.703,-2.7051,-2.7067,-2.7079,-2.7105,-2.7121,-2.7123,-2.714,-2.7162,-2.7182,-2.7208,-2.7229,-2.7273,-2.7281,-2.7305,-2.7302,-2.733,-2.7305,-2.7304,-2.7301,-2.7299,-2.73,-2.7335,-2.7335,-2.7336,-2.7337,0,-2.7073,-2.7074,-2.7098,-2.7123,-2.7143,-2.7162,-2.718,-2.7194,-2.7198,-2.7217,-2.7244,-2.7261,-2.7293,-2.7318,-2.7342,-2.7351,-2.7344,-2.7344,-2.7351,-2.7351,-2.7348,-2.7349,-2.7266,-2.7342,-2.7342,-2.7341,-2.7341,-2.7341,-2.7122,-2.7144,-2.7162,-2.7188,-2.7202,-2.7219,-2.724,-2.7248,-2.7271,-2.7298,-2.7297,-2.7327,-2.7343,-2.7374,-2.7384,-2.7407,-2.7398,-2.7408,-2.741,-2.7413,-2.7414,-2.7345,-2.7411,-2.7411,-2.7411,-2.7411,-2.7411,0,-2.7189,-2.72,-2.7224,-2.725,-2.727,-2.7262,-2.7281,-2.7298,-2.7325,-2.7341,-2.7361,-2.7392,-2.7416,-2.7426,-2.745,-2.7466,-2.7463,-2.7472,-2.747,-2.7472,-2.7422,-2.7413,-2.7473,-2.7473,-2.7473,-2.7473,-2.7473,-2.7473,-2.7227,-2.7264,-2.7267,-2.731,-2.732,-2.7349,-2.736,-2.7375,-2.7388,-2.7422,-2.7443,-2.7449,-2.7462,-2.7486,-2.7508,-2.751,-2.7518,-2.7528,-2.7529,-2.7482,-2.7476,-2.747,-2.7461,-2.753,-2.753,-2.7576,-2.7577,-2.7577]}]]